This is the latest recevied weather packets stored in our database for station/object KN6KS. If no packets are shown the sender has not sent any weather packets the latest 10 day(s).
| Time | Temp. | Humidity | Pressure | Rain* | Wind** | Luminosity | Snow |
|---|---|---|---|---|---|---|---|
| 1777867760 | 12.22° C | 69% | 1011.3 hPa | 0 mm | - | 0 W/m² | - |
| 1777867458 | 12.22° C | 69% | 1011.1 hPa | 0 mm | - | 0 W/m² | - |
| 1777867154 | 12.22° C | 69% | 1011.1 hPa | 0 mm | - | 0 W/m² | - |
| 1777866852 | 12.22° C | 69% | 1010.9 hPa | 0 mm | - | 0 W/m² | - |
| 1777866548 | 12.22° C | 69% | 1011 hPa | 0 mm | - | 0 W/m² | - |
| 1777866245 | 12.78° C | 67% | 1011 hPa | 0 mm | - | 0 W/m² | - |
| 1777865942 | 12.78° C | 68% | 1011 hPa | 0 mm | - | 0 W/m² | - |
| 1777865640 | 12.78° C | 67% | 1011 hPa | 0 mm | - | 0 W/m² | - |
| 1777865337 | 12.78° C | 67% | 1010.4 hPa | 0 mm | - | 0 W/m² | - |
| 1777865034 | 12.22° C | 67% | 1010.3 hPa | 0 mm | - | 0 W/m² | - |
| 1777864730 | 12.22° C | 69% | 1010.6 hPa | 0 mm | - | 0 W/m² | - |
| 1777864428 | 12.22° C | 69% | 1010.5 hPa | 0 mm | - | 0 W/m² | - |
| 1777864124 | 12.22° C | 69% | 1010.7 hPa | 0 mm | - | 0 W/m² | - |
| 1777863822 | 12.22° C | 69% | 1010.5 hPa | 0 mm | - | 0 W/m² | - |
| 1777863517 | 12.78° C | 69% | 1010.3 hPa | 0 mm | - | 0 W/m² | - |
| 1777863214 | 12.78° C | 68% | 1010.2 hPa | 0 mm | - | 0 W/m² | - |
| 1777862911 | 12.78° C | 68% | 1009.9 hPa | 0 mm | - | 0 W/m² | - |
| 1777862607 | 12.78° C | 68% | 1009.7 hPa | 0 mm | - | 3 W/m² | - |
| 1777862304 | 12.78° C | 68% | 1009.2 hPa | 0 mm | - | 4 W/m² | - |
| 1777862001 | 12.78° C | 68% | 1009.3 hPa | 0 mm | - | 7 W/m² | - |
| 1777861697 | 12.78° C | 67% | 1009.1 hPa | 0 mm | - | 12 W/m² | - |
| 1777861394 | 12.78° C | 67% | 1009 hPa | 0 mm | - | 19 W/m² | - |
| 1777861090 | 13.33° C | 67% | 1009 hPa | 0 mm | - | 27 W/m² | - |
| 1777860788 | 13.33° C | 67% | 1009 hPa | 0 mm | - | 34 W/m² | - |
| 1777860484 | 13.33° C | 66% | 1008.6 hPa | 0 mm | - | 46 W/m² | - |
* Rain latest hour (hover to see other rain measurements)
** Current wind speed in m/s (hover to see current wind gust speed)